Location: Heidgraben
(53.7081°N, 9.6576°E)
Time: 04:36:52
(UTC+00:00)

Cosmos 2341 Rocket - Pass Details

Date: 05 July 2020
Orbit: 968 x 1004 km, 82.9° (Epoch: 06 August)

Event Time Altitude Azimuth Distance (km) Brightness Sun altitude
Exits shadow 23:11:49 14° 205° (SSW) 2,410 5.5 -13.6°
Maximum altitude 23:17:08 64° 285° (WNW) 1,074 4.3 -13.6°
Drops below altitude 10° 23:23:20 10° 7° (N) 2,725 7.8 -13.6°
Sets 23:25:53 0° 10° (N) 3,676 8.8 -13.6°
